| time (UTC) | temp F | wind direction | speed knots | gust knots | rain 1hr in | rain 24hr in | rain mn in | humidity % | barometer mb |
| 20260509161543 | 81 | 315 | 3.5 | 7.8 | 0.00 | 0.00 | 0.00 | 65 | 1013.8 |
| 20260509160044 | 80 | 319 | 5.2 | 9.6 | 0.00 | 0.00 | 0.00 | 67 | 1013.7 |
| 20260509154540 | 79 | 319 | 5.2 | 10.4 | 0.00 | 0.00 | 0.00 | 67 | 1013.7 |
| 20260509153043 | 78 | 300 | 4.3 | 11.3 | 0.00 | 0.00 | 0.00 | 71 | 1013.5 |
| 20260509151551 | 77 | 332 | 8.7 | 13.0 | 0.00 | 0.00 | 0.00 | 71 | 1013.4 |
| 20260509150044 | 76 | 315 | 5.2 | 10.4 | 0.00 | 0.00 | 0.00 | 76 | 1013.5 |
| 20260509144600 | 75 | 313 | 6.1 | 11.3 | 0.00 | 0.00 | 0.00 | 77 | 1013.6 |
| 20260509143105 | 74 | 317 | 7.8 | 12.2 | 0.00 | 0.00 | 0.00 | 79 | 1013.5 |
| 20260509141547 | 73 | 306 | 7.8 | 10.4 | 0.00 | 0.00 | 0.00 | 81 | 1013.4 |
| 20260509140054 | 72 | 342 | 7.8 | 12.2 | 0.00 | 0.00 | 0.00 | 82 | 1013.6 |
| 20260509134604 | 72 | 304 | 6.1 | 10.4 | 0.00 | 0.00 | 0.00 | 84 | 1013.4 |
| 20260509133046 | 70 | 322 | 6.1 | 11.3 | 0.00 | 0.00 | 0.00 | 87 | 1013.3 |
| 20260509131539 | 69 | 286 | 4.3 | 8.7 | 0.00 | 0.00 | 0.00 | 90 | 1013.2 |
| 20260509130055 | 70 | 329 | 1.7 | 3.5 | 0.00 | 0.00 | 0.00 | 94 | 1012.9 |
| 20260509124549 | 70 | 0 | 0.0 | 0.0 | 0.00 | 0.00 | 0.00 | 95 | 1012.7 |
| 20260509123101 | 69 | 0 | 0.0 | 0.0 | 0.00 | 0.00 | 0.00 | 94 | 1012.5 |
| 20260509121600 | 68 | 0 | 0.0 | 0.0 | 0.00 | 0.00 | 0.00 | 94 | 1012.9 |
| 20260509120038 | 68 | 0 | 0.0 | 0.0 | 0.00 | 0.00 | 0.00 | 94 | 1012.8 |
| 20260509114540 | 69 | 0 | 0.0 | 0.0 | 0.00 | 0.00 | 0.00 | 94 | 1012.8 |
| 20260509113040 | 69 | 0 | 0.0 | 2.6 | 0.00 | 0.00 | 0.00 | 94 | 1012.8 |
| 20260509111559 | 70 | 323 | 2.6 | 7.8 | 0.00 | 0.00 | 0.00 | 95 | 1012.9 |
| 20260509110045 | 70 | 302 | 4.3 | 10.4 | 0.00 | 0.00 | 0.00 | 95 | 1012.4 |
| 20260509104546 | 69 | 286 | 6.1 | 13.0 | 0.00 | 0.00 | 0.00 | 95 | 1012.3 |
| 20260509103047 | 69 | 182 | 5.2 | 12.2 | 0.00 | 0.00 | 0.00 | 95 | 1011.0 |
| 20260509101616 | 69 | 171 | 7.0 | 11.3 | 0.00 | 0.00 | 0.00 | 95 | 1010.7 |
| 20260509100042 | 68 | 184 | 6.1 | 13.9 | 0.00 | 0.00 | 0.00 | 95 | 1010.5 |
| 20260509094540 | 68 | 196 | 7.0 | 13.0 | 0.00 | 0.00 | 0.00 | 95 | 1010.4 |
| 20260509093042 | 68 | 163 | 6.1 | 11.3 | 0.00 | 0.00 | 0.00 | 95 | 1010.4 |
| 20260509091542 | 68 | 142 | 7.0 | 11.3 | 0.00 | 0.00 | 0.00 | 95 | 1010.8 |
| 20260509090041 | 68 | 175 | 5.2 | 9.6 | 0.00 | 0.00 | 0.00 | 94 | 1011.2 |
| 20260509084539 | 68 | 136 | 4.3 | 9.6 | 0.00 | 0.00 | 0.00 | 94 | 1011.4 |
| 20260509083037 | 68 | 154 | 6.1 | 10.4 | 0.00 | 0.00 | 0.00 | 94 | 1011.8 |
| 20260509081546 | 68 | 166 | 2.6 | 7.0 | 0.00 | 0.00 | 0.00 | 93 | 1012.7 |
| 20260509080041 | 69 | 190 | 3.5 | 7.8 | 0.00 | 0.00 | 0.00 | 93 | 1013.6 |
| 20260509074546 | 69 | 268 | 2.6 | 6.1 | 0.00 | 0.00 | 0.00 | 94 | 1014.9 |
| 20260509073037 | 69 | 267 | 2.6 | 5.2 | 0.00 | 0.00 | 0.00 | 93 | 1014.7 |
| 20260509071545 | 68 | 0 | 0.0 | 0.0 | 0.00 | 0.00 | 0.00 | 93 | 1014.5 |
| 20260509070047 | 69 | 0 | 0.0 | 6.1 | 0.00 | 0.00 | 0.00 | 93 | 1014.1 |
| 20260509064551 | 68 | 323 | 1.7 | 4.3 | 0.00 | 0.00 | 0.00 | 93 | 1014.6 |
| 20260509063044 | 68 | 322 | 1.7 | 4.3 | 0.00 | 0.00 | 0.00 | 92 | 1014.1 |
| 20260509061539 | 68 | 0 | 0.0 | 0.0 | 0.00 | 0.00 | 0.00 | 91 | 1013.8 |
| 20260509060049 | 68 | 0 | 0.0 | 0.0 | 0.00 | 0.00 | 0.00 | 91 | 1013.4 |
| 20260509054558 | 68 | 0 | 0.0 | 0.0 | 0.00 | 0.00 | 0.00 | 91 | 1013.3 |
| 20260509053049 | 69 | 0 | 0.0 | 3.5 | 0.00 | 0.00 | 0.00 | 91 | 1013.3 |
| 20260509051542 | 69 | 146 | 2.6 | 5.2 | 0.00 | 0.00 | 0.00 | 91 | 1013.2 |
| 20260509050040 | 70 | 0 | 0.0 | 0.0 | 0.00 | 0.00 | 0.00 | 90 | 1013.5 |
| 20260509044539 | 70 | 0 | 0.0 | 0.0 | 0.00 | 0.00 | 0.00 | 89 | 1013.7 |
| 20260509043041 | 70 | 0 | 0.0 | 4.3 | 0.00 | 0.00 | 0.00 | 90 | 1013.4 |
| 20260509041609 | 71 | 147 | 0.9 | 3.5 | 0.00 | 0.00 | 0.00 | 89 | 1013.1 |
| 20260509040049 | 71 | 0 | 0.0 | 0.0 | 0.00 | 0.00 | 0.00 | 89 | 1013.3 |
| 20260509034538 | 71 | 0 | 0.0 | 0.0 | 0.00 | 0.00 | 0.00 | 89 | 1013.2 |
| 20260509033039 | 71 | 157 | 0.0 | 4.3 | 0.00 | 0.00 | 0.00 | 88 | 1012.9 |
| 20260509031547 | 72 | 167 | 1.7 | 4.3 | 0.00 | 0.00 | 0.00 | 88 | 1012.8 |
| 20260509030044 | 72 | 140 | 1.7 | 3.5 | 0.00 | 0.00 | 0.00 | 87 | 1012.7 |
| 20260509024541 | 72 | 0 | 0.0 | 0.0 | 0.00 | 0.00 | 0.00 | 87 | 1012.9 |
| 20260509023046 | 72 | 0 | 0.9 | 3.5 | 0.00 | 0.00 | 0.00 | 87 | 1012.5 |
| 20260509021538 | 72 | 167 | 0.9 | 2.6 | 0.00 | 0.00 | 0.00 | 86 | 1012.2 |
| 20260509020048 | 73 | 0 | 0.9 | 4.3 | 0.00 | 0.00 | 0.00 | 85 | 1012.2 |
| 20260509014540 | 73 | 0 | 0.0 | 0.0 | 0.00 | 0.00 | 0.00 | 85 | 1011.9 |
| 20260509013046 | 73 | 0 | 0.0 | 0.0 | 0.00 | 0.00 | 0.00 | 84 | 1011.9 |
| 20260509011543 | 73 | 0 | 0.0 | 1.7 | 0.00 | 0.00 | 0.00 | 84 | 1011.8 |
| 20260509010041 | 73 | 151 | 1.7 | 3.5 | 0.00 | 0.00 | 0.00 | 84 | 1011.5 |
| 20260509004542 | 74 | 142 | 0.9 | 4.3 | 0.00 | 0.00 | 0.00 | 83 | 1011.7 |
| 20260509003047 | 74 | 166 | 2.6 | 6.1 | 0.00 | 0.00 | 0.00 | 83 | 1011.5 |
| 20260509001545 | 74 | 132 | 4.3 | 7.8 | 0.00 | 0.00 | 0.00 | 82 | 1011.6 |
| 20260509000042 | 75 | 120 | 2.6 | 7.8 | 0.00 | 0.00 | 0.00 | 81 | 1011.6 |
| 20260508234541 | 75 | 166 | 4.3 | 7.8 | 0.00 | 0.00 | 0.00 | 81 | 1011.5 |
| 20260508233039 | 75 | 116 | 3.5 | 7.8 | 0.00 | 0.00 | 0.00 | 81 | 1011.4 |
| 20260508231537 | 75 | 153 | 7.0 | 11.3 | 0.00 | 0.00 | 0.00 | 81 | 1011.6 |
| 20260508230048 | 75 | 165 | 6.1 | 12.2 | 0.00 | 0.00 | 0.00 | 81 | 1011.5 |
| 20260508224546 | 74 | 161 | 5.2 | 10.4 | 0.00 | 0.00 | 0.00 | 82 | 1011.7 |
| 20260508223042 | 74 | 190 | 7.0 | 11.3 | 0.00 | 0.00 | 0.00 | 81 | 1011.7 |
| 20260508221541 | 73 | 111 | 1.7 | 7.0 | 0.00 | 0.00 | 0.00 | 83 | 1012.0 |
| 20260508220039 | 73 | 143 | 2.6 | 10.4 | 0.00 | 0.00 | 0.00 | 82 | 1012.3 |
| 20260508214537 | 72 | 184 | 2.6 | 8.7 | 0.00 | 0.00 | 0.00 | 83 | 1012.6 |
| 20260508213041 | 72 | 132 | 3.5 | 13.9 | 0.00 | 0.00 | 0.00 | 82 | 1012.2 |
| 20260508211545 | 71 | 132 | 6.1 | 11.3 | 0.00 | 0.00 | 0.00 | 82 | 1012.2 |
| 20260508210045 | 70 | 113 | 5.2 | 13.9 | 0.00 | 0.00 | 0.00 | 83 | 1012.5 |
| 20260508204544 | 69 | 133 | 3.5 | 8.7 | 0.00 | 0.00 | 0.00 | 83 | 1012.9 |
| 20260508203047 | 69 | 138 | 3.5 | 7.8 | 0.00 | 0.00 | 0.00 | 82 | 1013.5 |
| 20260508201548 | 69 | 160 | 3.5 | 7.0 | 0.00 | 0.00 | 0.00 | 80 | 1014.3 |
| 20260508200105 | 69 | 191 | 3.5 | 11.3 | 0.00 | 0.00 | 0.00 | 80 | 1014.3 |
| 20260508194543 | 70 | 182 | 4.3 | 7.8 | 0.00 | 0.00 | 0.00 | 77 | 1014.6 |
| 20260508193053 | 69 | 123 | 4.3 | 7.8 | 0.00 | 0.00 | 0.00 | 79 | 1014.0 |
| 20260508191545 | 70 | 157 | 6.1 | 11.3 | 0.00 | 0.00 | 0.00 | 78 | 1014.3 |
| 20260508190047 | 70 | 173 | 6.1 | 11.3 | 0.00 | 0.00 | 0.00 | 78 | 1014.6 |
| 20260508184551 | 69 | 145 | 6.1 | 10.4 | 0.00 | 0.00 | 0.00 | 78 | 1014.6 |
| 20260508183107 | 69 | 161 | 4.3 | 7.8 | 0.00 | 0.00 | 0.00 | 79 | 1015.0 |
| 20260508181601 | 69 | 136 | 5.2 | 9.6 | 0.00 | 0.00 | 0.00 | 77 | 1015.4 |
| 20260508180042 | 69 | 122 | 6.1 | 9.6 | 0.00 | 0.00 | 0.00 | 75 | 1015.6 |
| 20260508174537 | 70 | 142 | 5.2 | 8.7 | 0.00 | 0.00 | 0.00 | 73 | 1015.5 |
| 20260508173036 | 70 | 150 | 3.5 | 7.8 | 0.00 | 0.00 | 0.00 | 77 | 1015.4 |
| 20260508171545 | 69 | 76 | 4.3 | 8.7 | 0.00 | 0.00 | 0.00 | 76 | 1015.8 |
| 20260508170052 | 69 | 136 | 4.3 | 11.3 | 0.00 | 0.00 | 0.00 | 76 | 1016.1 |
| 20260508164546 | 69 | 121 | 2.6 | 9.6 | 0.00 | 0.00 | 0.00 | 77 | 1016.2 |
| 20260508163037 | 68 | 113 | 3.5 | 8.7 | 0.00 | 0.00 | 0.00 | 80 | 1016.3 |